Location: Dappach
(48.9767°N, 9.6998°E)
Time: 23:57:24
(UTC+00:00)

deb r/b Ablestar - Visible Passes

Search period start: 11 October 2024 00:00
Search period end: 21 October 2024 00:00
Orbit: 969 x 983 km, 66.7° (Epoch: 11 October)

Date Brightness Start Highest point End Pass type
(mag) Time Alt. Az. Time Alt. Az. Time Alt. Az.
11 Oct ? 02:35:08 10° SE 02:39:04 17° ESE 02:43:00 10° ENE visible
11 Oct ? 04:19:23 10° SSW 04:25:43 83° ESE 04:32:07 10° NE visible
12 Oct ? 02:58:59 10° S 03:04:28 32° ESE 03:09:58 10° NE visible
12 Oct ? 04:45:28 10° SW 04:51:43 61° NW 04:58:03 10° NNE visible
13 Oct ? 03:24:50 15° SSW 03:30:05 56° ESE 03:36:17 10° NE visible
14 Oct ? 02:06:22 16° SE 02:09:06 21° ESE 02:13:36 10° ENE visible
14 Oct ? 03:51:05 18° SW 03:55:55 86° WNW 04:02:20 10° NE visible
15 Oct ? 02:32:28 29° SSE 02:34:34 37° ESE 02:40:19 10° NE visible
15 Oct ? 04:17:11 17° WSW 04:21:59 54° NW 04:28:14 10° NNE visible
16 Oct ? 01:13:43 12° ESE 01:13:52 12° E 01:16:19 10° ENE visible
16 Oct ? 02:58:26 46° S 03:00:14 65° ESE 03:06:32 10° NE visible
16 Oct ? 04:43:08 13° W 04:48:16 35° NW 04:54:05 10° NNE visible
17 Oct ? 01:39:34 24° ESE 01:39:34 24° ESE 01:44:05 10° NE visible
17 Oct ? 03:24:17 48° SW 03:26:08 76° NW 03:32:32 10° NE visible
17 Oct ? 05:09:37 10° W 05:14:46 25° NNW 05:19:57 10° NNE visible
18 Oct ? 02:05:20 42° E 02:05:20 42° E 02:10:37 10° NE visible
18 Oct ? 03:50:02 35° W 03:52:15 48° NW 03:58:24 10° NNE visible
19 Oct ? 00:46:20 12° ENE 00:46:20 12° ENE 00:47:16 10° ENE visible
19 Oct ? 02:31:01 69° ENE 02:31:01 69° ENE 02:36:46 10° NE visible
19 Oct ? 04:15:43 23° WNW 04:18:35 32° NW 04:24:15 10° NNE visible
20 Oct ? 01:11:57 21° ENE 01:11:57 21° ENE 01:14:30 10° NE visible
20 Oct ? 02:56:38 67° NNW 02:56:38 67° NNW 03:02:42 10° NNE visible
20 Oct ? 04:41:19 14° WNW 04:45:09 23° NNW 04:50:09 10° NNE visible
